Date,TemperatureHighF,TemperatureAvgF,TemperatureLowF,DewpointHighF,DewpointAvgF,DewpointLowF,HumidityHigh,HumidityAvg,HumidityLow,PressureMaxIn,PressureMinIn,WindSpeedMaxMPH,WindSpeedAvgMPH,GustSpeedMaxMPH,PrecipitationSumIn
2013-1-1,21.0,16.5,9.0,-99.9,-99.9,-99.9,0,0,100,0.00,40.00,12,6,0,0.02
2013-1-2,32.0,17.9,5.0,-99.9,-99.9,-99.9,0,0,100,0.00,40.00,8,4,0,0.03
2013-1-3,35.0,28.3,21.0,-99.9,-99.9,-99.9,0,0,100,0.00,40.00,8,3,0,0.08
2013-1-4,38.0,25.4,13.0,-99.9,-99.9,-99.9,0,0,100,0.00,40.00,11,4,0,0.02
2013-1-5,40.0,33.4,24.0,-99.9,-99.9,-99.9,0,0,100,0.00,40.00,10,5,0,0.02
2013-1-6,38.0,28.9,23.0,-99.9,-99.9,-99.9,0,0,100,0.00,40.00,14,6,0,0.01
2013-1-7,45.0,32.0,22.0,-99.9,-99.9,-99.9,0,0,100,0.00,40.00,10,5,0,0.01
2013-1-8,50.0,38.4,31.0,-99.9,-99.9,-99.9,0,0,100,0.00,40.00,7,4,0,0.00
2013-1-9,50.0,40.5,33.0,-99.9,-99.9,-99.9,0,0,100,0.00,40.00,7,3,0,0.00
2013-1-10,46.0,41.1,35.0,-99.9,-99.9,-99.9,0,0,100,0.00,40.00,15,6,0,0.31
2013-1-11,59.0,52.1,44.0,-99.9,-99.9,-99.9,0,0,100,0.00,40.00,11,6,0,0.26
2013-1-12,57.0,39.5,25.0,-99.9,-99.9,-99.9,0,0,100,0.00,40.00,15,9,0,0.00
2013-1-13,25.0,20.6,16.0,-99.9,-99.9,-99.9,0,0,100,0.00,40.00,13,8,0,0.00
2013-1-14,25.0,17.7,12.0,-99.9,-99.9,-99.9,0,0,100,0.00,40.00,6,2,0,0.00
2013-1-15,28.0,19.2,10.0,-99.9,-99.9,-99.9,0,0,100,0.00,40.00,5,2,0,0.00
2013-1-16,41.0,28.0,13.0,-99.9,-99.9,-99.9,0,0,100,0.00,40.00,11,5,0,0.00
2013-1-17,36.0,31.4,25.0,-99.9,-99.9,-99.9,0,0,100,0.00,40.00,14,6,0,0.00
2013-1-18,54.0,38.9,24.0,-99.9,-99.9,-99.9,0,0,100,0.00,40.00,10,6,0,0.00
2013-1-19,54.0,45.7,37.0,-99.9,-99.9,-99.9,0,0,100,0.00,40.00,16,7,0,0.00
2013-1-20,41.0,24.0,19.0,-99.9,-99.9,-99.9,0,0,100,0.00,40.00,16,8,0,0.00
2013-1-21,18.0,14.3,11.0,-99.9,-99.9,-99.9,0,0,100,0.00,40.00,16,9,0,0.00
2013-1-22,17.0,12.8,8.0,-99.9,-99.9,-99.9,0,0,100,0.00,40.00,10,4,0,0.00
2013-1-23,39.0,23.2,11.0,-99.9,-99.9,-99.9,0,0,100,0.00,40.00,16,6,0,0.00
2013-1-24,25.0,18.1,12.0,-99.9,-99.9,-99.9,0,0,100,0.00,40.00,17,10,0,0.00
2013-1-25,42.0,31.3,25.0,-99.9,-99.9,-99.9,0,0,100,0.00,40.00,9,4,0,0.00
2013-1-26,38.0,27.0,16.0,-99.9,-99.9,-99.9,0,0,100,0.00,40.00,13,6,0,0.00
2013-1-27,46.0,34.6,29.0,-99.9,-99.9,-99.9,0,0,100,0.00,40.00,13,8,0,0.19
2013-1-28,68.0,56.5,46.0,-99.9,-99.9,-99.9,0,0,100,0.00,40.00,7,4,0,0.03
2013-1-29,64.0,54.7,38.0,-99.9,-99.9,-99.9,0,0,100,0.00,40.00,14,5,0,1.82
2013-1-30,38.0,31.1,25.0,-99.9,-99.9,-99.9,0,0,100,0.00,40.00,19,11,0,0.74
2013-1-31,22.0,15.0,8.0,-99.9,-99.9,-99.9,0,0,100,0.00,40.00,18,12,0,0.00
2013-2-1,27.0,13.9,5.0,-99.9,-99.9,-99.9,0,0,100,0.00,40.00,12,6,0,0.00
2013-2-2,31.0,28.2,24.0,-99.9,-99.9,-99.9,0,0,100,0.00,40.00,14,7,0,0.00
2013-2-3,36.0,29.0,25.0,-99.9,-99.9,-99.9,0,0,100,0.00,40.00,20,7,0,0.00
2013-2-4,39.0,30.3,27.0,-99.9,-99.9,-99.9,0,0,100,0.00,40.00,19,8,0,0.00
2013-2-5,47.0,34.6,27.0,-99.9,-99.9,-99.9,0,0,100,0.00,40.00,12,6,0,0.00
2013-2-6,51.0,37.9,25.0,-99.9,-99.9,-99.9,0,0,100,0.00,40.00,11,5,0,0.00
2013-2-7,43.0,39.3,34.0,-99.9,-99.9,-99.9,0,0,100,0.00,40.00,14,6,0,0.34
2013-2-8,34.0,32.4,31.0,-99.9,-99.9,-99.9,0,0,100,0.00,40.00,13,7,0,0.01
2013-2-9,40.0,33.7,29.0,-99.9,-99.9,-99.9,0,0,100,0.00,40.00,11,8,0,0.05
2013-2-10,61.0,46.1,36.0,-99.9,-99.9,-99.9,0,0,100,0.00,40.00,19,12,0,0.29
2013-2-11,44.0,38.0,32.0,-99.9,-99.9,-99.9,0,0,100,0.00,40.00,16,9,0,0.01
2013-2-12,41.0,32.6,27.0,-99.9,-99.9,-99.9,0,0,100,0.00,40.00,6,2,0,0.00
2013-2-13,47.0,36.7,27.0,-99.9,-99.9,-99.9,0,0,100,0.00,40.00,8,3,0,0.00
2013-2-14,47.0,41.5,36.0,-99.9,-99.9,-99.9,0,0,100,0.00,40.00,12,7,0,0.00
2013-2-15,37.0,30.4,25.0,-99.9,-99.9,-99.9,0,0,100,0.00,40.00,14,9,0,0.00
2013-2-16,35.0,25.5,18.0,-99.9,-99.9,-99.9,0,0,100,0.00,40.00,9,5,0,0.00
2013-2-17,45.0,33.2,22.0,-99.9,-99.9,-99.9,0,0,100,0.00,40.00,14,8,0,0.00
2013-2-18,56.0,42.2,29.0,-99.9,-99.9,-99.9,0,0,100,0.00,40.00,20,10,0,0.38
2013-2-19,28.0,23.3,18.0,-99.9,-99.9,-99.9,0,0,100,0.00,40.00,19,11,0,0.01
2013-2-20,22.0,16.7,10.0,-99.9,-99.9,-99.9,0,0,100,0.00,40.00,15,7,0,0.00
2013-2-21,29.0,24.2,19.0,-99.9,-99.9,-99.9,0,0,100,0.00,40.00,13,9,0,0.00
2013-2-22,32.0,29.3,26.0,-99.9,-99.9,-99.9,0,0,100,0.00,40.00,11,6,0,0.00
2013-2-23,33.0,22.7,15.0,-99.9,-99.9,-99.9,0,0,100,0.00,40.00,7,4,0,0.04
2013-2-24,45.0,27.0,10.0,-99.9,-99.9,-99.9,0,0,100,0.00,40.00,8,4,0,0.03
2013-2-25,42.0,34.6,27.0,-99.9,-99.9,-99.9,0,0,100,0.00,40.00,15,6,0,0.00
2013-2-26,38.0,33.8,32.0,-99.9,-99.9,-99.9,0,0,100,0.00,40.00,23,14,0,0.04
2013-2-27,32.0,31.6,31.0,-99.9,-99.9,-99.9,0,0,100,0.00,40.00,10,8,0,0.03
2013-2-28,33.0,31.0,29.0,-99.9,-99.9,-99.9,0,0,100,0.00,40.00,12,7,0,0.01
2013-3-1,30.0,28.2,25.0,-99.9,-99.9,-99.9,0,0,100,0.00,40.00,14,8,0,0.05
2013-3-2,30.0,26.5,22.0,-99.9,-99.9,-99.9,0,0,100,0.00,40.00,13,6,0,0.05
2013-3-3,35.0,25.5,14.0,-99.9,-99.9,-99.9,0,0,100,0.00,40.00,9,4,0,0.00
2013-3-4,41.0,36.3,32.0,-99.9,-99.9,-99.9,0,0,100,0.00,40.00,15,10,0,0.00
2013-3-5,35.0,32.1,31.0,-99.9,-99.9,-99.9,0,0,100,0.00,40.00,16,11,0,0.10
2013-3-6,31.0,29.2,25.0,-99.9,-99.9,-99.9,0,0,100,0.00,40.00,16,9,0,0.01
2013-3-7,42.0,29.8,20.0,-99.9,-99.9,-99.9,0,0,100,0.00,40.00,13,4,0,0.00
2013-3-8,45.0,37.5,30.0,-99.9,-99.9,-99.9,0,0,100,0.00,40.00,12,8,0,0.00
2013-3-9,54.0,44.7,38.0,-99.9,-99.9,-99.9,0,0,100,0.00,40.00,14,8,0,0.94
2013-3-10,50.0,46.8,40.0,-99.9,-99.9,-99.9,0,0,100,0.00,40.00,14,5,0,0.78
2013-3-11,39.0,34.1,32.0,-99.9,-99.9,-99.9,0,0,100,0.00,40.00,12,8,0,0.01
2013-3-12,39.0,32.7,28.0,-99.9,-99.9,-99.9,0,0,100,0.00,40.00,17,9,0,0.00
2013-3-13,38.0,30.8,25.0,-99.9,-99.9,-99.9,0,0,100,0.00,40.00,18,9,0,0.00
2013-3-14,58.0,39.1,28.0,-99.9,-99.9,-99.9,0,0,100,0.00,40.00,9,4,0,0.00
2013-3-15,66.0,48.2,32.0,-99.9,-99.9,-99.9,0,0,100,0.00,40.00,7,3,0,0.00
2013-3-16,46.0,39.8,37.0,-99.9,-99.9,-99.9,0,0,100,0.00,40.00,14,10,0,0.00
2013-3-17,39.0,34.7,32.0,-99.9,-99.9,-99.9,0,0,100,0.00,40.00,14,9,0,0.01
2013-3-18,46.0,38.0,32.0,-99.9,-99.9,-99.9,0,0,100,0.00,40.00,16,8,0,0.02
2013-3-19,44.0,34.3,27.0,-99.9,-99.9,-99.9,0,0,100,0.00,40.00,13,7,0,0.00
2013-3-20,36.0,27.8,21.0,-99.9,-99.9,-99.9,0,0,100,0.00,40.00,16,10,0,0.00
2013-3-21,39.0,26.3,19.0,-99.9,-99.9,-99.9,0,0,100,0.00,40.00,10,4,0,0.00
2013-3-22,40.0,33.0,26.0,-99.9,-99.9,-99.9,0,0,100,0.00,40.00,10,3,0,0.00
2013-3-23,49.0,40.5,35.0,-99.9,-99.9,-99.9,0,0,100,0.00,40.00,19,6,0,0.00
2013-3-24,36.0,31.4,30.0,-99.9,-99.9,-99.9,0,0,100,0.00,40.00,20,13,0,0.02
2013-3-25,34.0,31.5,29.0,-99.9,-99.9,-99.9,0,0,100,0.00,40.00,16,9,0,0.04
2013-3-26,39.0,33.5,29.0,-99.9,-99.9,-99.9,0,0,100,0.00,40.00,12,6,0,0.01
2013-3-27,45.0,35.5,25.0,-99.9,-99.9,-99.9,0,0,100,0.00,40.00,8,3,0,0.00
2013-3-28,52.0,42.3,33.0,-99.9,-99.9,-99.9,0,0,100,0.00,40.00,11,6,0,0.00
2013-3-29,60.0,47.3,37.0,-99.9,-99.9,-99.9,0,0,100,0.00,40.00,8,3,0,0.00
2013-3-30,54.0,47.1,40.0,-99.9,-99.9,-99.9,0,0,100,0.00,40.00,12,5,0,0.00
2013-3-31,60.0,52.1,44.0,-99.9,-99.9,-99.9,0,0,100,0.00,40.00,16,6,0,0.00
2013-4-1,43.0,38.3,32.0,-99.9,-99.9,-99.9,0,0,100,0.00,40.00,20,10,0,0.00
2013-4-2,47.0,37.6,28.0,-99.9,-99.9,-99.9,0,0,100,0.00,40.00,15,5,0,0.00
2013-4-3,50.0,40.2,30.0,-99.9,-99.9,-99.9,0,0,100,0.00,40.00,11,6,0,0.00
2013-4-4,61.0,47.3,33.0,-99.9,-99.9,-99.9,0,0,100,0.00,40.00,6,2,0,0.00
2013-4-5,65.0,51.2,41.0,-99.9,-99.9,-99.9,0,0,100,0.00,40.00,10,4,0,0.00
2013-4-6,73.0,61.6,52.0,-99.9,-99.9,-99.9,0,0,100,0.00,40.00,16,10,0,0.00
2013-4-7,77.0,61.1,44.0,-99.9,-99.9,-99.9,0,0,100,0.00,40.00,11,4,0,0.00
2013-4-8,72.0,61.4,55.0,-99.9,-99.9,-99.9,0,0,100,0.00,40.00,12,6,0,0.92
2013-4-9,77.0,69.4,64.0,-99.9,-99.9,-99.9,0,0,100,0.00,40.00,12,6,0,0.01
2013-4-10,67.0,53.8,47.0,-99.9,-99.9,-99.9,0,0,100,0.00,40.00,23,8,0,1.22
2013-4-11,51.0,43.8,40.0,-99.9,-99.9,-99.9,0,0,100,0.00,40.00,15,8,0,1.01
2013-4-12,44.0,40.6,38.0,-99.9,-99.9,-99.9,0,0,100,0.00,40.00,12,8,0,0.01
2013-4-13,57.0,46.3,36.0,-99.9,-99.9,-99.9,0,0,100,0.00,40.00,11,6,0,0.00
2013-4-14,80.0,63.3,48.0,-99.9,-99.9,-99.9,0,0,100,0.00,40.00,15,9,0,0.56
2013-4-15,58.0,54.0,46.0,-99.9,-99.9,-99.9,0,0,100,0.00,40.00,17,6,0,0.65
2013-4-16,50.0,45.8,41.0,-99.9,-99.9,-99.9,0,0,100,0.00,40.00,15,9,0,0.22
2013-4-17,61.0,50.6,46.0,-99.9,-99.9,-99.9,0,0,100,0.00,40.00,20,10,0,2.49
2013-4-18,62.0,52.5,40.0,-99.9,-99.9,-99.9,0,0,100,0.00,40.00,21,10,0,4.37
2013-4-19,47.0,41.6,38.0,-99.9,-99.9,-99.9,0,0,100,0.00,40.00,17,13,0,0.03
2013-4-20,50.0,41.8,35.0,-99.9,-99.9,-99.9,0,0,100,0.00,40.00,10,5,0,0.00
2013-4-21,63.0,51.3,42.0,-99.9,-99.9,-99.9,0,0,100,0.00,40.00,13,9,0,0.00
2013-4-22,69.0,59.0,48.0,-99.9,-99.9,-99.9,0,0,100,0.00,40.00,12,6,0,0.00
2013-4-23,57.0,44.1,39.0,-99.9,-99.9,-99.9,0,0,100,0.00,40.00,18,10,0,0.39
2013-4-24,53.0,43.0,36.0,-99.9,-99.9,-99.9,0,0,100,0.00,40.00,15,9,0,0.05
2013-4-25,64.0,50.7,43.0,-99.9,-99.9,-99.9,0,0,100,0.00,40.00,13,6,0,0.01
2013-4-26,60.0,54.9,49.0,-99.9,-99.9,-99.9,0,0,100,0.00,40.00,13,6,0,0.00
2013-4-27,54.0,50.9,48.0,-99.9,-99.9,-99.9,0,0,100,0.00,40.00,8,4,0,0.05
2013-4-28,67.0,55.7,51.0,-99.9,-99.9,-99.9,0,0,100,0.00,40.00,7,4,0,0.03
2013-4-29,85.0,64.8,49.0,-99.9,-99.9,-99.9,0,0,100,0.00,40.00,11,6,0,0.01
2013-4-30,87.0,75.9,64.0,-99.9,-99.9,-99.9,0,0,100,0.00,40.00,12,6,0,0.00
2013-5-1,86.0,73.9,60.0,-99.9,-99.9,-99.9,0,0,100,0.00,40.00,16,5,0,0.00
2013-5-2,60.0,48.2,39.0,-99.9,-99.9,-99.9,0,0,100,0.00,40.00,18,12,0,0.09
2013-5-3,43.0,39.7,38.0,-99.9,-99.9,-99.9,0,0,100,0.00,40.00,17,12,0,1.33
2013-5-4,49.0,45.0,40.0,-99.9,-99.9,-99.9,0,0,100,0.00,40.00,12,3,0,0.30
2013-5-5,67.0,55.5,47.0,-99.9,-99.9,-99.9,0,0,100,0.00,40.00,15,6,0,0.03
2013-5-6,71.0,61.5,54.0,-99.9,-99.9,-99.9,0,0,100,0.00,40.00,15,6,0,0.03
2013-5-7,78.0,64.8,54.0,-99.9,-99.9,-99.9,0,0,100,0.00,40.00,6,2,0,0.00
2013-5-8,83.0,66.1,52.0,-99.9,-99.9,-99.9,0,0,100,0.00,40.00,6,2,0,0.00
2013-5-9,71.0,63.3,60.0,-99.9,-99.9,-99.9,0,0,100,0.00,40.00,7,4,0,0.60
2013-5-10,60.0,56.3,55.0,-99.9,-99.9,-99.9,0,0,100,0.00,40.00,13,7,0,0.03
2013-5-11,60.0,54.4,47.0,-99.9,-99.9,-99.9,0,0,100,0.00,40.00,21,9,0,0.01
2013-5-12,61.0,51.2,42.0,-99.9,-99.9,-99.9,0,0,100,0.00,40.00,10,6,0,0.01
2013-5-13,76.0,59.2,40.0,-99.9,-99.9,-99.9,0,0,100,0.00,40.00,7,3,0,0.00
2013-5-14,91.0,74.1,57.0,-99.9,-99.9,-99.9,0,0,100,0.00,40.00,11,6,0,0.00
2013-5-15,90.0,77.6,66.0,-99.9,-99.9,-99.9,0,0,100,0.00,40.00,11,5,0,0.00
2013-5-16,86.0,69.7,65.0,-99.9,-99.9,-99.9,0,0,100,0.00,40.00,8,3,0,0.00
2013-5-17,83.0,70.5,60.0,-99.9,-99.9,-99.9,0,0,100,0.00,40.00,6,3,0,0.00
2013-5-18,85.0,73.7,63.0,-99.9,-99.9,-99.9,0,0,100,0.00,40.00,8,4,0,0.00
2013-5-19,91.0,79.1,70.0,-99.9,-99.9,-99.9,0,0,100,0.00,40.00,14,5,0,0.00
2013-5-20,85.0,70.3,62.0,-99.9,-99.9,-99.9,0,0,100,0.00,40.00,16,5,0,1.51
2013-5-21,79.0,72.1,64.0,-99.9,-99.9,-99.9,0,0,100,0.00,40.00,13,6,0,1.32
2013-5-22,68.0,65.3,62.0,-99.9,-99.9,-99.9,0,0,100,0.00,40.00,13,7,0,0.00
2013-5-23,67.0,61.0,58.0,-99.9,-99.9,-99.9,0,0,100,0.00,40.00,18,8,0,0.00
2013-5-24,71.0,59.7,49.0,-99.9,-99.9,-99.9,0,0,100,0.00,40.00,9,4,0,0.00
2013-5-25,67.0,58.3,52.0,-99.9,-99.9,-99.9,0,0,100,0.00,40.00,13,5,0,0.53
2013-5-26,76.0,64.1,54.0,-99.9,-99.9,-99.9,0,0,100,0.00,40.00,10,6,0,0.09
2013-5-27,79.0,67.5,64.0,-99.9,-99.9,-99.9,0,0,100,0.00,40.00,12,4,0,2.81
2013-5-28,79.0,71.9,62.0,-99.9,-99.9,-99.9,0,0,100,0.00,40.00,12,4,0,1.90
2013-5-29,89.0,75.4,62.0,-99.9,-99.9,-99.9,0,0,100,0.00,40.00,6,3,0,0.42
2013-5-30,76.0,73.0,71.0,-99.9,-99.9,-99.9,0,0,100,0.00,40.00,6,3,0,0.01
2013-5-31,73.0,67.7,62.0,-99.9,-99.9,-99.9,0,0,100,0.00,40.00,9,3,0,0.74
2013-6-1,75.0,67.6,63.0,-99.9,-99.9,-99.9,0,0,100,0.00,40.00,14,6,0,0.07
2013-6-2,63.0,61.0,58.0,-99.9,-99.9,-99.9,0,0,100,0.00,40.00,12,9,0,0.00
2013-6-3,73.0,62.4,53.0,-99.9,-99.9,-99.9,0,0,100,0.00,40.00,6,3,0,0.00
2013-6-4,75.0,65.1,55.0,-99.9,-99.9,-99.9,0,0,100,0.00,40.00,7,3,0,0.00
2013-6-5,77.0,68.6,58.0,-99.9,-99.9,-99.9,0,0,100,0.00,40.00,8,2,0,0.00
2013-6-6,73.0,67.7,63.0,-99.9,-99.9,-99.9,0,0,100,0.00,40.00,11,7,0,0.00
2013-6-7,71.0,65.0,59.0,-99.9,-99.9,-99.9,0,0,100,0.00,40.00,13,7,0,0.00
2013-6-8,83.0,69.8,55.0,-99.9,-99.9,-99.9,0,0,100,0.00,40.00,6,2,0,0.00
2013-6-9,78.0,68.2,62.0,-99.9,-99.9,-99.9,0,0,100,0.00,40.00,9,2,0,0.52
2013-6-10,79.0,68.2,62.0,-99.9,-99.9,-99.9,0,0,100,0.00,40.00,8,4,0,0.38
2013-6-11,93.0,77.1,62.0,-99.9,-99.9,-99.9,0,0,100,0.00,40.00,7,2,14,0.01
2013-6-12,95.0,83.1,71.0,-99.9,-99.9,-99.9,0,0,100,0.00,40.00,18,6,26,0.00
2013-6-13,84.0,74.8,67.0,-99.9,-99.9,-99.9,0,0,100,0.00,40.00,17,8,26,0.00
2013-6-14,81.0,71.2,64.0,-99.9,-99.9,-99.9,0,0,100,0.00,40.00,13,4,19,0.02
2013-6-15,95.0,76.3,67.0,-99.9,-99.9,-99.9,0,0,100,0.00,40.00,28,5,41,0.50
2013-6-16,84.0,73.8,67.0,-99.9,-99.9,-99.9,0,0,100,0.00,40.00,4,2,7,0.30
2013-6-17,83.0,75.8,68.0,-99.9,-99.9,-99.9,0,0,100,0.00,40.00,7,2,9,0.01
2013-6-18,81.0,74.5,66.0,-99.9,-99.9,-99.9,0,0,100,0.00,40.00,12,4,15,0.00
2013-6-19,89.0,75.3,64.0,-99.9,-99.9,-99.9,0,0,100,0.00,40.00,8,2,13,0.00
2013-6-20,91.0,76.9,66.0,-99.9,-99.9,-99.9,0,0,100,0.00,40.00,5,2,15,0.00
2013-6-22,97.0,85.4,76.0,-99.9,-99.9,-99.9,0,0,100,0.00,40.00,6,3,14,0.00
2013-6-23,89.0,75.3,70.0,-99.9,-99.9,-99.9,0,0,100,0.00,40.00,21,3,30,0.17
2013-6-24,93.0,80.5,69.0,-99.9,-99.9,-99.9,0,0,100,0.00,40.00,10,3,15,0.03
2013-6-25,94.0,83.7,75.0,-99.9,-99.9,-99.9,0,0,100,0.00,40.00,9,3,17,0.00
2013-6-26,89.0,80.7,72.0,-99.9,-99.9,-99.9,0,0,100,0.00,40.00,10,3,21,0.02
2013-6-27,88.0,80.8,72.0,-99.9,-99.9,-99.9,0,0,100,0.00,40.00,9,4,15,0.01
2013-6-28,85.0,79.0,72.0,-99.9,-99.9,-99.9,0,0,100,0.00,40.00,20,8,25,0.00
2013-6-29,77.0,70.7,65.0,-99.9,-99.9,-99.9,0,0,100,0.00,40.00,18,10,29,0.04
2013-6-30,76.0,69.3,66.0,-99.9,-99.9,-99.9,0,0,100,0.00,40.00,16,10,21,0.02
2013-7-1,78.0,71.1,63.0,-99.9,-99.9,-99.9,0,0,100,0.00,40.00,16,11,20,0.00
2013-7-2,78.0,70.4,63.0,-99.9,-99.9,-99.9,0,0,100,0.00,40.00,14,8,21,0.00
2013-7-3,86.0,72.5,61.0,-99.9,-99.9,-99.9,0,0,100,0.00,40.00,6,2,13,0.00
2013-7-4,88.0,74.9,62.0,-99.9,-99.9,-99.9,0,0,100,0.00,40.00,4,1,8,0.00
2013-7-5,89.0,77.6,65.0,-99.9,-99.9,-99.9,0,0,100,0.00,40.00,5,2,10,0.00
2013-7-6,91.0,76.0,66.0,-99.9,-99.9,-99.9,0,0,100,0.00,40.00,7,2,12,0.00
2013-7-7,95.0,81.8,69.0,-99.9,-99.9,-99.9,0,0,100,0.00,40.00,7,2,11,0.00
2013-7-8,92.0,80.5,74.0,-99.9,-99.9,-99.9,0,0,100,0.00,40.00,7,1,12,0.02
2013-7-9,96.0,85.7,77.0,-99.9,-99.9,-99.9,0,0,100,0.00,40.00,7,2,11,0.01
2013-7-10,85.0,79.1,75.0,-99.9,-99.9,-99.9,0,0,100,0.00,40.00,12,5,19,0.02
2013-7-11,85.0,75.7,66.0,-99.9,-99.9,-99.9,0,0,100,0.00,40.00,7,4,10,0.02
2013-7-12,89.0,75.3,62.0,-99.9,-99.9,-99.9,0,0,100,0.00,40.00,7,2,11,0.00
2013-7-13,87.0,75.1,62.0,-99.9,-99.9,-99.9,0,0,100,0.00,40.00,7,2,10,0.00
2013-7-14,90.0,79.0,66.0,-99.9,-99.9,-99.9,0,0,100,0.00,40.00,9,4,12,0.00
2013-7-15,91.0,82.4,73.0,-99.9,-99.9,-99.9,0,0,100,0.00,40.00,8,2,13,0.00
2013-7-16,98.0,84.8,74.0,-99.9,-99.9,-99.9,0,0,100,0.00,40.00,5,1,8,0.00
2013-7-17,98.0,85.6,76.0,-99.9,-99.9,-99.9,0,0,100,0.00,40.00,4,1,6,0.00
2013-7-18,100.0,89.6,77.0,-99.9,-99.9,-99.9,0,0,100,0.00,40.00,5,1,10,0.00
2013-7-19,97.0,87.5,77.0,-99.9,-99.9,-99.9,0,0,100,0.00,40.00,12,4,18,0.00
2013-7-20,87.0,81.3,75.0,-99.9,-99.9,-99.9,0,0,100,0.00,40.00,11,4,13,0.00
2013-7-21,83.0,74.3,69.0,-99.9,-99.9,-99.9,0,0,100,0.00,40.00,6,2,13,0.38
2013-7-22,94.0,78.0,66.0,-99.9,-99.9,-99.9,0,0,100,0.00,40.00,6,2,12,0.10
2013-7-23,82.0,76.1,69.0,-99.9,-99.9,-99.9,0,0,100,0.00,40.00,15,8,19,0.01
2013-7-24,77.0,71.3,64.0,-99.9,-99.9,-99.9,0,0,100,0.00,40.00,12,6,16,0.00
2013-7-25,87.0,72.7,60.0,-99.9,-99.9,-99.9,0,0,100,0.00,40.00,5,1,8,0.00
2013-7-26,83.0,73.0,68.0,-99.9,-99.9,-99.9,0,0,100,0.00,40.00,13,4,15,0.25
2013-7-27,71.0,65.5,58.0,-99.9,-99.9,-99.9,0,0,100,0.00,40.00,12,8,19,0.13
2013-7-28,78.0,66.2,52.0,-99.9,-99.9,-99.9,0,0,100,0.00,40.00,8,4,15,0.00
2013-7-29,80.0,68.7,55.0,-99.9,-99.9,-99.9,0,0,100,0.00,40.00,6,2,10,0.00
2013-7-30,80.0,72.1,66.0,-99.9,-99.9,-99.9,0,0,100,0.00,40.00,7,3,12,0.70
2013-7-31,79.0,71.7,68.0,-99.9,-99.9,-99.9,0,0,100,0.00,40.00,9,4,12,0.06
2013-8-1,89.0,75.2,66.0,-99.9,-99.9,-99.9,0,0,100,0.00,40.00,6,1,8,0.00
2013-8-2,86.0,74.9,69.0,-99.9,-99.9,-99.9,0,0,100,0.00,40.00,6,2,15,0.00
2013-8-3,80.0,74.2,69.0,-99.9,-99.9,-99.9,0,0,100,0.00,40.00,10,5,12,0.00
2013-8-4,85.0,73.7,64.0,-99.9,-99.9,-99.9,0,0,100,0.00,40.00,6,2,7,0.00
2013-8-5,83.0,74.1,66.0,-99.9,-99.9,-99.9,0,0,100,0.00,40.00,4,2,8,0.00
2013-8-6,89.0,77.1,68.0,-99.9,-99.9,-99.9,0,0,100,0.00,40.00,6,2,9,0.00
2013-8-7,86.0,77.6,72.0,-99.9,-99.9,-99.9,0,0,100,0.00,40.00,9,2,11,0.35
2013-8-8,79.0,73.1,66.0,-99.9,-99.9,-99.9,0,0,100,0.00,40.00,8,6,12,0.01
2013-8-9,87.0,75.4,70.0,-99.9,-99.9,-99.9,0,0,100,0.00,40.00,4,2,5,0.00
2013-8-10,80.0,73.7,67.0,-99.9,-99.9,-99.9,0,0,100,0.00,40.00,12,6,18,0.00
2013-8-11,89.0,75.0,61.0,-99.9,-99.9,-99.9,0,0,100,0.00,40.00,4,1,7,0.00
2013-8-12,81.0,73.8,67.0,-99.9,-99.9,-99.9,0,0,100,0.00,40.00,10,2,14,0.00
2013-8-13,76.0,68.4,62.0,-99.9,-99.9,-99.9,0,0,100,0.00,40.00,15,6,19,0.00
2013-8-14,75.0,64.7,55.0,-99.9,-99.9,-99.9,0,0,100,0.00,40.00,6,2,9,0.00
2013-8-15,77.0,61.1,58.0,-99.9,-99.9,-99.9,0,0,100,0.00,40.00,5,1,9,0.00
2013-8-16,79.0,68.0,60.0,-99.9,-99.9,-99.9,0,0,100,0.00,40.00,6,2,12,0.00
2013-8-17,81.0,68.3,57.0,-99.9,-99.9,-99.9,0,0,100,0.00,40.00,6,2,11,0.00
2013-8-18,87.0,71.6,60.0,-99.9,-99.9,-99.9,0,0,100,0.00,40.00,4,1,7,0.00
2013-8-19,89.0,71.3,63.0,-99.9,-99.9,-99.9,0,0,100,0.00,40.00,5,1,8,0.00
2013-8-20,92.0,76.9,66.0,-99.9,-99.9,-99.9,0,0,100,0.00,40.00,4,2,9,0.00
2013-8-21,92.0,79.0,67.0,-99.9,-99.9,-99.9,0,0,100,0.00,40.00,9,2,12,0.00
2013-8-22,87.0,77.8,69.0,-99.9,-99.9,-99.9,0,0,100,0.00,40.00,6,2,10,0.00
2013-8-23,91.0,79.6,70.0,-99.9,-99.9,-99.9,0,0,100,0.00,40.00,8,3,11,0.00
2013-8-24,93.0,79.1,69.0,-99.9,-99.9,-99.9,0,0,100,0.00,40.00,6,2,10,0.00
2013-8-25,95.0,80.5,68.0,-99.9,-99.9,-99.9,0,0,100,0.00,40.00,8,2,11,0.00
2013-8-26,96.0,82.1,68.0,-99.9,-99.9,-99.9,0,0,100,0.00,40.00,7,3,11,0.00
2013-8-27,95.0,81.1,72.0,-99.9,-99.9,-99.9,0,0,100,0.00,40.00,12,4,19,0.00
2013-8-28,99.0,91.5,81.0,-99.9,-99.9,-99.9,0,0,100,0.00,40.00,7,4,11,0.00
2013-8-29,97.0,82.9,72.0,-99.9,-99.9,-99.9,0,0,100,0.00,40.00,6,2,8,0.00
2013-8-30,102.0,87.1,75.0,-99.9,-99.9,-99.9,0,0,100,0.00,40.00,9,3,12,0.00
2013-8-31,94.0,84.4,77.0,-99.9,-99.9,-99.9,0,0,100,0.00,40.00,13,4,17,0.00
2013-9-1,90.0,79.8,72.0,-99.9,-99.9,-99.9,0,0,100,0.00,40.00,8,3,15,0.00
2013-9-2,81.0,72.0,63.0,-99.9,-99.9,-99.9,0,0,100,0.00,40.00,12,7,14,0.00
2013-9-3,81.0,68.8,59.0,-99.9,-99.9,-99.9,0,0,100,0.00,40.00,11,4,12,0.00
2013-9-4,86.0,71.1,57.0,-99.9,-99.9,-99.9,0,0,100,0.00,40.00,6,1,8,0.00
2013-9-5,90.0,74.8,61.0,-99.9,-99.9,-99.9,0,0,100,0.00,40.00,8,2,10,0.00
2013-9-6,93.0,77.3,65.0,-99.9,-99.9,-99.9,0,0,100,0.00,40.00,4,1,10,0.00
2013-9-7,98.0,78.7,64.0,-99.9,-99.9,-99.9,0,0,100,0.00,40.00,6,2,13,0.00
2013-9-8,92.0,81.8,72.0,-99.9,-99.9,-99.9,0,0,100,0.00,40.00,9,3,14,0.00
2013-9-9,101.0,84.7,72.0,-99.9,-99.9,-99.9,0,0,100,0.00,40.00,8,3,13,0.00
2013-9-10,98.0,83.6,71.0,-99.9,-99.9,-99.9,0,0,100,0.00,40.00,9,3,15,0.00
2013-9-11,97.0,83.1,72.0,-99.9,-99.9,-99.9,0,0,100,0.00,40.00,13,4,19,0.00
2013-9-12,82.0,74.5,68.0,-99.9,-99.9,-99.9,0,0,100,0.00,40.00,14,7,17,0.57
2013-9-13,74.0,65.2,58.0,-99.9,-99.9,-99.9,0,0,100,0.00,40.00,13,7,16,0.00
2013-9-14,76.0,61.4,49.0,-99.9,-99.9,-99.9,0,0,100,0.00,40.00,6,3,10,0.00
2013-9-15,78.0,64.2,58.0,-99.9,-99.9,-99.9,0,0,100,0.00,40.00,16,5,24,0.05
2013-9-16,70.0,63.1,59.0,-99.9,-99.9,-99.9,0,0,100,0.00,40.00,15,6,19,0.03
2013-9-17,67.0,61.5,55.0,-99.9,-99.9,-99.9,0,0,100,0.00,40.00,7,4,10,0.01
2013-9-18,76.0,65.2,62.0,-99.9,-99.9,-99.9,0,0,100,0.00,40.00,3,2,5,0.01
2013-9-19,91.0,80.1,69.0,-99.9,-99.9,-99.9,0,0,100,0.00,40.00,12,5,24,1.12
2013-9-20,70.0,67.0,61.0,-99.9,-99.9,-99.9,0,0,100,0.00,40.00,11,5,22,1.19
2013-9-21,69.0,59.2,52.0,-99.9,-99.9,-99.9,0,0,100,0.00,40.00,11,6,15,0.01
2013-9-22,77.0,61.2,49.0,-99.9,-99.9,-99.9,0,0,100,0.00,40.00,6,2,8,0.00
2013-9-23,76.0,63.4,51.0,-99.9,-99.9,-99.9,0,0,100,0.00,40.00,8,4,16,0.00
2013-9-24,79.0,67.1,54.0,-99.9,-99.9,-99.9,0,0,100,0.00,40.00,10,5,16,0.00
2013-9-25,84.0,69.1,60.0,-99.9,-99.9,-99.9,0,0,100,0.00,40.00,10,3,11,0.00
2013-9-26,86.0,72.3,59.0,-99.9,-99.9,-99.9,0,0,100,0.00,40.00,7,3,12,0.00
2013-9-27,85.0,72.3,62.0,-99.9,-99.9,-99.9,0,0,100,0.00,40.00,10,4,15,0.00
2013-9-28,77.0,67.4,60.0,-99.9,-99.9,-99.9,0,0,100,0.00,40.00,13,4,20,0.39
2013-9-29,73.0,60.6,52.0,-99.9,-99.9,-99.9,0,0,100,0.00,40.00,6,2,8,0.06
2013-9-30,79.0,63.0,47.0,-99.9,-99.9,-99.9,0,0,100,0.00,40.00,7,2,16,0.01
2013-10-1,77.0,70.4,67.0,-99.9,-99.9,-99.9,0,0,100,0.00,40.00,2,1,3,0.00
2013-10-2,87.0,72.5,63.0,-99.9,-99.9,-99.9,0,0,100,0.00,40.00,5,2,9,0.00
2013-10-3,86.0,73.0,68.0,-99.9,-99.9,-99.9,0,0,100,0.00,40.00,8,3,14,0.27
2013-10-4,90.0,77.1,68.0,-99.9,-99.9,-99.9,0,0,100,0.00,40.00,9,4,17,0.27
2013-10-5,77.0,65.0,53.0,-99.9,-99.9,-99.9,0,0,100,0.00,40.00,11,5,17,0.10
2013-10-6,54.0,50.2,46.0,-99.9,-99.9,-99.9,0,0,100,0.00,40.00,14,7,19,0.02
2013-10-7,71.0,58.2,49.0,-99.9,-99.9,-99.9,0,0,100,0.00,40.00,8,4,12,0.01
2013-10-8,78.0,62.2,49.0,-99.9,-99.9,-99.9,0,0,100,0.00,40.00,6,3,12,0.00
2013-10-9,76.0,61.3,48.0,-99.9,-99.9,-99.9,0,0,100,0.00,40.00,4,2,9,0.00
2013-10-10,80.0,63.1,48.0,-99.9,-99.9,-99.9,0,0,100,0.00,40.00,6,2,14,0.00
2013-10-11,80.0,67.4,56.0,-99.9,-99.9,-99.9,0,0,100,0.00,40.00,10,4,16,0.00
2013-10-12,71.0,64.6,57.0,-99.9,-99.9,-99.9,0,0,100,0.00,40.00,11,5,17,0.00
2013-10-13,68.0,56.7,45.0,-99.9,-99.9,-99.9,0,0,100,0.00,40.00,7,3,8,0.00
2013-10-14,68.0,57.0,43.0,-99.9,-99.9,-99.9,0,0,100,0.00,40.00,11,5,18,0.01
2013-10-15,66.0,60.4,51.0,-99.9,-99.9,-99.9,0,0,100,0.00,40.00,14,6,19,0.26
2013-10-16,55.0,51.5,49.0,-99.9,-99.9,-99.9,0,0,100,0.00,40.00,9,6,16,0.01
2013-10-17,65.0,53.3,46.0,-99.9,-99.9,-99.9,0,0,100,0.00,40.00,11,4,17,0.06
2013-10-18,53.0,47.6,43.0,-99.9,-99.9,-99.9,0,0,100,0.00,40.00,10,6,17,0.03
2013-10-19,58.0,46.3,37.0,-99.9,-99.9,-99.9,0,0,100,0.00,40.00,15,6,20,0.03
2013-10-20,73.0,56.7,43.0,-99.9,-99.9,-99.9,0,0,100,0.00,40.00,15,5,27,0.00
2013-10-21,60.0,48.5,41.0,-99.9,-99.9,-99.9,0,0,100,0.00,40.00,12,6,18,0.00
2013-10-22,53.0,43.1,36.0,-99.9,-99.9,-99.9,0,0,100,0.00,40.00,16,6,27,0.02
2013-10-23,46.0,40.6,36.0,-99.9,-99.9,-99.9,0,0,100,0.00,40.00,11,5,17,0.01
2013-10-24,43.0,39.5,31.0,-99.9,-99.9,-99.9,0,0,100,0.00,40.00,13,7,22,0.00
2013-10-25,56.0,40.6,27.0,-99.9,-99.9,-99.9,0,0,100,0.00,40.00,10,3,18,0.00
2013-10-26,56.0,47.5,40.0,-99.9,-99.9,-99.9,0,0,100,0.00,40.00,13,6,23,0.00
2013-10-27,60.0,43.6,28.0,-99.9,-99.9,-99.9,0,0,100,0.00,40.00,7,3,12,0.00
2013-10-28,71.0,49.7,32.0,-99.9,-99.9,-99.9,0,0,100,0.00,40.00,8,2,11,0.00
2013-10-29,57.0,51.5,45.0,-99.9,-99.9,-99.9,0,0,100,0.00,40.00,8,5,15,0.00
2013-10-30,66.0,60.7,55.0,-99.9,-99.9,-99.9,0,0,100,0.00,40.00,6,3,10,0.97
2013-10-31,64.0,55.8,47.0,-99.9,-99.9,-99.9,0,0,100,0.00,40.00,14,5,20,1.55
2013-11-1,57.0,49.6,44.0,-99.9,-99.9,-99.9,0,0,100,0.00,40.00,11,6,18,0.01
2013-11-2,53.0,46.4,37.0,-99.9,-99.9,-99.9,0,0,100,0.00,40.00,13,6,22,0.00
2013-11-3,58.0,44.7,32.0,-99.9,-99.9,-99.9,0,0,100,0.00,40.00,12,5,18,0.00
2013-11-4,60.0,53.0,47.0,-99.9,-99.9,-99.9,0,0,100,0.00,40.00,9,5,16,0.00
2013-11-5,58.0,54.9,52.0,-99.9,-99.9,-99.9,0,0,100,0.00,40.00,10,5,17,0.23
2013-11-6,58.0,46.9,38.0,-99.9,-99.9,-99.9,0,0,100,0.00,40.00,15,7,23,0.63
2013-11-7,52.0,41.3,30.0,-99.9,-99.9,-99.9,0,0,100,0.00,40.00,9,4,16,0.01
2013-11-8,57.0,42.5,28.0,-99.9,-99.9,-99.9,0,0,100,0.00,40.00,11,5,19,0.00
2013-11-9,65.0,54.2,48.0,-99.9,-99.9,-99.9,0,0,100,0.00,40.00,14,7,21,0.00
2013-11-10,52.0,43.4,37.0,-99.9,-99.9,-99.9,0,0,100,0.00,40.00,12,4,16,0.00
2013-11-11,57.0,42.9,29.0,-99.9,-99.9,-99.9,0,0,100,0.00,40.00,21,10,27,0.00
2013-11-12,34.0,27.1,21.0,-99.9,-99.9,-99.9,0,0,100,0.00,40.00,17,7,22,0.00
2013-11-13,47.0,32.5,19.0,-99.9,-99.9,-99.9,0,0,100,0.00,40.00,12,5,18,0.00
2013-11-14,55.0,43.0,34.0,-99.9,-99.9,-99.9,0,0,100,0.00,40.00,13,6,19,0.00
2013-11-15,58.0,47.0,39.0,-99.9,-99.9,-99.9,0,0,100,0.00,40.00,9,5,12,0.00
2013-11-16,64.0,56.6,47.0,-99.9,-99.9,-99.9,0,0,100,0.00,40.00,13,8,24,0.03
2013-11-17,71.0,60.0,45.0,-99.9,-99.9,-99.9,0,0,100,0.00,40.00,28,10,46,0.23
2013-11-18,52.0,44.3,35.0,-99.9,-99.9,-99.9,0,0,100,0.00,40.00,15,5,20,0.01
2013-11-19,51.0,39.2,29.0,-99.9,-99.9,-99.9,0,0,100,0.00,40.00,11,5,17,0.00
2013-11-20,44.0,39.6,37.0,-99.9,-99.9,-99.9,0,0,100,0.00,40.00,12,8,18,0.53
2013-11-21,49.0,45.7,39.0,-99.9,-99.9,-99.9,0,0,100,0.00,40.00,12,5,17,0.18
2013-11-22,39.0,33.9,27.0,-99.9,-99.9,-99.9,0,0,100,0.00,40.00,14,10,21,0.06
2013-11-23,27.0,22.9,17.0,-99.9,-99.9,-99.9,0,0,100,0.00,40.00,15,10,22,0.00
2013-11-24,31.0,21.0,12.0,-99.9,-99.9,-99.9,0,0,100,0.00,40.00,9,4,10,0.00
2013-11-25,37.0,32.3,26.0,-99.9,-99.9,-99.9,0,0,100,0.00,40.00,9,5,12,0.00
2013-11-26,35.0,29.1,23.0,-99.9,-99.9,-99.9,0,0,100,0.00,40.00,17,8,27,0.00
2013-11-27,28.0,21.5,16.0,-99.9,-99.9,-99.9,0,0,100,0.00,40.00,9,5,18,0.00
2013-11-28,40.0,30.4,21.0,-99.9,-99.9,-99.9,0,0,100,0.00,40.00,9,6,15,0.00
2013-11-29,41.0,30.7,18.0,-99.9,-99.9,-99.9,0,0,100,0.00,40.00,8,4,13,0.00
2013-11-30,54.0,39.5,30.0,-99.9,-99.9,-99.9,0,0,100,0.00,40.00,8,4,12,0.00
2013-12-1,48.0,38.1,27.0,-99.9,-99.9,-99.9,0,0,100,0.00,40.00,3,1,5,0.00
2013-12-2,53.0,41.7,36.0,-99.9,-99.9,-99.9,0,0,100,0.00,40.00,9,3,12,0.00
2013-12-3,56.0,44.8,33.0,-99.9,-99.9,-99.9,0,0,100,0.00,40.00,11,4,14,0.00
2013-12-4,60.0,48.4,30.0,-99.9,-99.9,-99.9,0,0,100,0.00,40.00,16,6,22,0.00
2013-12-5,30.0,23.5,20.0,-99.9,-99.9,-99.9,0,0,100,0.00,40.00,14,9,23,0.00
2013-12-6,21.0,17.1,13.0,-99.9,-99.9,-99.9,0,0,100,0.00,40.00,14,9,20,0.00
2013-12-7,21.0,14.1,8.0,-99.9,-99.9,-99.9,0,0,100,0.00,40.00,13,7,19,0.00
2013-12-8,25.0,21.8,17.0,-99.9,-99.9,-99.9,0,0,100,0.00,40.00,10,5,13,0.00
2013-12-9,25.0,18.0,14.0,-99.9,-99.9,-99.9,0,0,100,0.00,40.00,11,6,17,0.00
2013-12-10,31.0,20.6,8.0,-99.9,-99.9,-99.9,0,0,100,0.00,40.00,12,5,20,0.00
2013-12-11,26.0,19.2,6.0,-99.9,-99.9,-99.9,0,0,100,0.00,40.00,18,7,23,0.00
2013-12-12,39.0,21.1,5.0,-99.9,-99.9,-99.9,0,0,100,0.00,40.00,11,4,16,0.00
2013-12-13,36.0,30.1,23.0,-99.9,-99.9,-99.9,0,0,100,0.00,40.00,7,4,10,0.31
2013-12-14,32.0,28.0,22.0,-99.9,-99.9,-99.9,0,0,100,0.00,40.00,0,0,0,0.17
2013-12-15,27.0,21.9,15.0,-99.9,-99.9,-99.9,0,0,100,0.00,40.00,5,1,6,0.07
2013-12-16,26.0,23.5,20.0,-99.9,-99.9,-99.9,0,0,100,0.00,40.00,11,4,13,0.01
2013-12-17,39.0,30.3,20.0,-99.9,-99.9,-99.9,0,0,100,0.00,40.00,9,4,14,0.48
2013-12-18,47.0,33.5,19.0,-99.9,-99.9,-99.9,0,0,100,0.00,40.00,10,6,17,0.01
2013-12-19,52.0,45.2,40.0,-99.9,-99.9,-99.9,0,0,100,0.00,40.00,6,4,8,0.00
2013-12-20,48.0,37.1,31.0,-99.9,-99.9,-99.9,0,0,100,0.00,40.00,12,6,14,0.07
2013-12-21,30.0,29.0,28.0,-99.9,-99.9,-99.9,0,0,100,0.00,40.00,12,7,14,0.01
2013-12-22,31.0,27.7,19.0,-99.9,-99.9,-99.9,0,0,100,0.00,40.00,10,4,14,0.00
2013-12-23,20.0,12.2,5.0,-99.9,-99.9,-99.9,0,0,100,0.00,40.00,11,7,17,0.00
2013-12-24,23.0,10.7,1.0,-99.9,-99.9,-99.9,0,0,100,0.00,40.00,14,6,18,0.00
2013-12-25,34.0,28.9,23.0,-99.9,-99.9,-99.9,0,0,100,0.00,40.00,10,5,14,0.00
2013-12-26,43.0,32.4,20.0,-99.9,-99.9,-99.9,0,0,100,0.00,40.00,9,4,16,0.12
2013-12-27,51.0,37.4,27.0,-99.9,-99.9,-99.9,0,0,100,0.00,40.00,7,3,10,0.01
2013-12-28,56.0,42.6,36.0,-99.9,-99.9,-99.9,0,0,100,0.00,40.00,11,5,15,0.00
2013-12-29,40.0,23.5,12.0,-99.9,-99.9,-99.9,0,0,100,0.00,40.00,18,11,31,0.01
2013-12-30,26.0,13.9,5.0,-99.9,-99.9,-99.9,0,0,100,0.00,40.00,9,4,14,0.01
2013-12-31,39.0,27.0,18.0,-99.9,-99.9,-99.9,0,0,100,0.00,40.00,10,5,14,0.00
2014-1-1,23.0,20.2,16.0,-99.9,-99.9,-99.9,0,0,100,0.00,40.00,15,10,18,0.00
2014-1-2,16.0,12.0,3.0,-99.9,-99.9,-99.9,0,0,100,0.00,40.00,16,9,20,0.00